Weather observations for the past three days for
Cut Bank, Cut Bank Municipal Airport
Metric (Imperial)
Date Time (mdt) Wind (kph) Vis. (km) Weather Sky Cond. Temperature (ºC) Relative Humidity Wind Chill (°C) Heat Index (°C) Pressure Precipitation (cm)
Air Dwpt 6 hour altimeter (cm) sea level (mb) 1 hr 3 hr 6 hr
Max. Min.
16 06:56 W 28 G 46 16.09 Overcast BKN055 OVC070 7.2 -3.3 48% 3 75.69 1009.2
16 05:56 W 31 G 54 16.09 Overcast OVC070 7.2 -3.3 7.2 4.4 48% 3 75.64 1008.2
16 04:56 W 37 G 56 16.09 Partly Cloudy and Breezy SCT080 6.7 -3.3 49% 2 75.59 1007.1
16 03:56 W 44 G 65 16.09 Overcast and Windy FEW070 OVC095 7.2 -3.9 46% 2 75.54 1006.3
16 02:56 W 39 G 59 16.09 Fair and Breezy CLR 6.1 -3.9 49% 1 75.54 1007.2
16 01:56 SW 31 16.09 Fair CLR 5.6 -3.9 51% 1 75.54 1007.6
16 00:56 W 24 16.09 Fair CLR 5 -3.9 53% 1 75.59 1008.2
15 23:56 W 24 16.09 Fair CLR 5.6 -3.3 13.3 5 53% 2 75.64 1008.2
15 22:56 W 37 G 54 16.09 Fair and Breezy CLR 6.7 -2.8 51% 2 75.67 1008.2
15 21:56 W 57 G 76 16.09 Fair and Windy CLR 7.2 -2.8 49% 2 75.62 1007.5
15 20:56 W 56 G 80 16.09 Fair and Windy CLR 7.8 -2.2 50% 3 75.64 1007.5
15 19:56 W 57 G 76 16.09 Fair and Windy CLR 9.4 -1.7 46% 5 75.62 1007.2
15 18:56 W 48 G 72 16.09 Fair and Windy CLR 10 1.1 54% 6 75.67 1008.2
15 17:56 SW 43 G 65 16.09 Fair and Windy CLR 12.8 -1.7 15.6 6.7 37% 75.59 1006.6 0.08
15 16:56 W 44 G 65 16.09 Fair and Windy CLR 13.9 0 39% 75.59 1006.5
15 15:56 W 56 G 78 16.09 Partly Cloudy and Windy FEW055 SCT085 13.9 2.2 45% 75.57 1006.1
15 14:56 SW 22 16.09 Partly Cloudy SCT110 9.4 5.6 77% 7 75.51 1006.0 0.08
15 13:56 SW 17 16.09 Overcast BKN055 OVC070 7.2 5 86% 5 75.62 1007.8 0.08
15 12:56 W 46 G 76 16.09 Overcast and Windy BKN060 OVC075 8.9 2.8 66% 5 75.67 1008.0
15 11:56 NW 30 G 44 16.09 Mostly Cloudy BKN095 13.9 -2.2 16.7 10 33% 75.54 1005.3
15 10:56 W 30 16.09 Overcast FEW075 OVC090 13.9 -2.2 33% 75.59 1005.8
15 09:56 NW 20 16.09 Overcast BKN100 OVC120 14.4 -2.8 31% 75.57 1005.1
15 08:56 W 30 16.09 Fair CLR 15 -2.8 29% 75.62 1005.5
15 07:56 W 17 16.09 Partly Cloudy SCT110 13.3 -2.8 33% 75.69 1006.7
15 06:56 NW 22 G 31 16.09 Fair CLR 11.7 -2.8 37% 75.74 1007.3
15 05:56 W 24 16.09 Fair CLR 11.7 -4.4 15 11.1 32% 75.74 1007.3
15 04:56 W 19 16.09 Fair CLR 11.7 -3.9 34% 75.77 1007.5
15 03:56 W 19 16.09 Fair CLR 12.2 -3.9 33% 75.79 1007.8
15 02:56 W 22 16.09 Fair CLR 12.8 -4.4 30% 75.82 1008.0
15 01:56 W 9 16.09 Fair CLR 12.2 -4.4 31% 75.82 1008.3
15 00:56 W 22 16.09 Fair CLR 14.4 -4.4 27% 75.82 1007.8
14 23:56 W 17 16.09 Fair CLR 14.4 -2.8 25 14.4 31% 75.84 1008.0
14 22:56 W 17 16.09 Fair CLR 15.6 -2.2 30% 75.84 1008.2
14 21:56 W 31 G 44 16.09 Fair CLR 18.3 -1.7 26% 75.82 1008.1
14 20:56 W 35 16.09 Fair and Breezy CLR 20 -2.8 21% 75.82 1008.1
14 19:56 W 41 G 56 16.09 Fair and Breezy CLR 21.7 -1.7 21% 75.79 1008.2
14 18:56 W 37 G 57 16.09 Fair and Breezy CLR 23.3 -3.3 17% 75.77 1007.9
14 17:56 W 39 G 56 16.09 Fair and Breezy CLR 25 -0.6 26.1 22.8 18% 25 75.74 1007.7
14 16:56 W 41 G 52 16.09 Fair and Breezy CLR 25.6 0.6 19% 25 75.79 1008.1
14 15:56 W 43 G 59 16.09 Fair and Windy CLR 26.1 0.6 19% 26 75.82 1008.3
14 14:56 W 41 G 72 16.09 Fair and Breezy CLR 25.6 -0.6 18% 25 75.87 1008.7
14 13:56 SW 39 G 57 16.09 Fair and Breezy CLR 23.3 -0.6 20% 75.9 1009.3
14 12:56 W 37 G 57 16.09 Fair and Breezy CLR 25.6 0 19% 25 75.87 1008.7
14 11:56 W 54 G 78 16.09 Fair and Windy CLR 25.6 0.6 25.6 8.3 19% 25 75.82 1007.8
14 10:56 W 41 G 57 16.09 Fair and Breezy CLR 23.9 1.1 22% 25 75.87 1008.5
14 09:56 W 26 16.09 Mostly Cloudy BKN120 18.9 2.2 33% 75.92 1009.6
14 08:56 W 17 16.09 Fair CLR 16.7 5 46% 75.92 1009.8
14 07:56 W 13 16.09 Partly Cloudy SCT110 11.7 4.4 61% 75.95 1010.4
14 06:56 NW 9 16.09 Fair CLR 10 3.9 66% 9 75.9 1009.7
14 05:56 N 6 16.09 Fair CLR 8.3 2.8 13.9 7.2 69% 75.92 1010.1
14 04:56 Calm 16.09 Fair CLR 7.8 1.7 66% 75.92 1010.2
14 03:56 E 6 16.09 Fair CLR 10 1.7 57% 75.95 1010.5
14 02:56 SE 7 16.09 Fair CLR 12.2 1.1 47% 76.02 1011.2
14 01:56 SE 11 16.09 Fair CLR 12.2 1.1 47% 76.07 1011.9
14 00:56 S 9 16.09 Fair CLR 12.2 0 43% 76.12 1012.9
13 23:56 SE 11 16.09 Fair CLR 13.9 -0.6 23.9 13.9 37% 76.12 1012.9
13 22:56 SE 11 16.09 Fair CLR 15 -0.6 35% 76.12 1012.8
13 21:56 SE 17 16.09 Fair CLR 16.7 -0.6 31% 76.15 1013.1
13 20:56 SE 15 16.09 Fair CLR 19.4 0.6 29% 76.15 1013.0
13 19:56 SE 19 16.09 Fair CLR 22.8 -1.1 20% 76.15 1013.3
13 18:56 SE 20 G 28 16.09 Fair CLR 23.9 -1.7 18% 24 76.17 1013.6
13 17:56 S 17 16.09 Fair CLR 23.9 -1.1 23.9 18.3 19% 24 76.2 1014.5
13 16:56 Vrbl 11 16.09 Fair CLR 23.3 -2.2 18% 76.25 1015.1
13 15:56 Calm 16.09 Fair CLR 23.3 -1.7 19% 76.3 1015.4
13 14:56 Calm 16.09 Fair CLR 21.7 -2.2 20% 76.33 1016.4
13 13:56 Calm 16.09 Fair CLR 21.1 -1.7 22% 76.38 1017.0
13 12:56 Calm 16.09 Fair CLR 20.6 -1.1 23% 76.43 1017.3
13 11:56 Vrbl 11 16.09 Fair CLR 18.9 -1.1 18.9 4.4 26% 76.45 1017.9
13 10:56 Calm 16.09 Fair CLR 18.3 -1.1 27% 76.5 1018.5
13 09:56 Vrbl 6 16.09 Fair CLR 17.2 0 31% 76.5 1018.3
13 08:56 W 7 16.09 Fair CLR 13.9 0.6 41% 76.5 1018.4
13 07:56 W 6 16.09 Fair CLR 10.6 2.2 56% 76.48 1018.1
Date Time (mdt) Wind (kph) Vis. (km) Weather Sky Cond. Air Dwpt Max. Min. Relative Humidity Wind Chill (°C) Heat Index (°C) altimeter (cm) sea level (mb) 1 hr 3 hr 6 hr
6 hour
Temperature (ºC) Pressure Precipitation (cm)